GW6707 Weather Reports


time (UTC)temp
F
wind
direction
speed
knots
gust
knots
rain 1hr
in
rain 24hr
in
rain mn
in
humidity
%
barometer
mb
20260902163019 81 318 0.9 3.5 0.00 0.00 0.00 53 1020.8
20260902161506 81 300 0.0 1.7 0.00 0.00 0.00 52 1020.8
20260902160009 80 163 2.6 4.3 0.00 0.00 0.00 51 1020.9
20260902154515 81 295 1.7 4.3 0.00 0.00 0.00 53 1020.9
20260902153019 81 51 0.9 3.5 0.00 0.00 0.00 54 1021.1
20260902151523 80 306 1.7 4.3 0.00 0.00 0.00 56 1021.2
20260902150004 79 309 1.7 3.5 0.00 0.00 0.00 59 1021.3
20260902144525 79 299 0.9 3.5 0.00 0.00 0.00 59 1021.5
20260902143014 79 294 0.9 3.5 0.00 0.00 0.00 58 1021.5
20260902141527 79 132 0.9 4.3 0.00 0.00 0.00 56 1021.5
20260902140006 80 291 2.6 5.2 0.00 0.00 0.00 1021.7
20260902134511 80 148 1.7 3.5 0.00 0.00 0.00 1021.7
20260902133012 80 348 1.7 6.1 0.00 0.00 0.00 54 1021.8
20260902131538 81 55 0.0 3.5 0.00 0.00 0.00 53 1021.9
20260902130028 80 311 2.6 7.0 0.00 0.00 0.00 1022.0
20260902124508 80 303 0.9 3.5 0.00 0.00 0.00 57 1022.3
20260902123016 79 330 2.6 7.0 0.00 0.00 0.00 58 1022.3
20260902121518 79 284 2.6 5.2 0.00 0.00 0.00 60 1022.4
20260902120025 78 153 0.9 6.1 0.00 0.00 0.00 63 1022.5
20260902114534 78 201 0.9 4.3 0.00 0.00 0.00 63 1022.6
20260902113006 78 303 0.9 4.3 0.00 0.00 0.00 62 1022.8
20260902111516 78 329 2.6 6.1 0.00 0.00 0.00 65 1023.0
20260902110021 77 330 2.6 7.0 0.00 0.00 0.00 65 1023.1
20260902104527 78 322 2.6 5.2 0.00 0.00 0.00 63 1023.2
20260902103037 76 158 0.9 3.5 0.00 0.00 0.00 66 1023.2
20260902101514 76 250 0.9 4.3 0.00 0.00 0.00 67 1023.4
20260902100018 76 98 0.9 2.6 0.00 0.00 0.00 68 1023.4
20260902094526 76 227 0.9 3.5 0.00 0.00 0.00 68 1023.7
20260902093030 76 103 0.0 2.6 0.00 0.00 0.00 69 1023.7
20260902091522 76 59 0.9 3.5 0.00 0.00 0.00 68 1023.6
20260902090018 75 143 0.9 4.3 0.00 0.00 0.00 65 1023.7
20260902084523 75 186 0.9 2.6 0.00 0.00 0.00 67 1023.6
20260902083026 75 141 0.9 4.3 0.00 0.00 0.00 66 1023.5
20260902081535 75 113 0.9 2.6 0.00 0.00 0.00 65 1023.4
20260902080015 73 123 0.9 1.7 0.00 0.00 0.00 67 1023.3
20260902074518 73 137 0.9 1.7 0.00 0.00 0.00 72 1023.1
20260902073025 71 161 0.0 1.7 0.00 0.00 0.00 73 1023.3
20260902071550 72 259 0.0 1.7 0.00 0.00 0.00 74 1023.2
20260902070034 72 250 0.0 1.7 0.00 0.00 0.00 71 1023.0
20260902064518 72 172 0.0 1.7 0.00 0.00 0.00 71 1022.9
20260902063028 71 172 0.0 1.7 0.00 0.00 0.00 71 1022.9
20260902061541 71 185 0.0 1.7 0.00 0.00 0.00 71 1022.8
20260902060035 71 313 0.9 1.7 0.00 0.00 0.00 72 1022.9
20260902054541 70 322 0.0 1.7 0.00 0.00 0.00 72 1022.7
20260902053024 70 9 0.0 1.7 0.00 0.00 0.00 72 1022.6
20260902051530 69 308 0.0 1.7 0.00 0.00 0.00 73 1022.5
20260902050035 69 308 0.0 1.7 0.00 0.00 0.00 74 1022.5
20260902044535 69 309 0.0 1.7 0.00 0.00 0.00 73 1022.4
20260902043032 69 315 0.0 0.9 0.00 0.00 0.00 73 1022.4
20260902041536 69 315 0.0 1.7 0.00 0.00 0.00 73 1022.3
20260902040036 70 265 0.0 1.7 0.00 0.00 0.00 74 1022.2
20260902034533 70 265 0.0 0.0 0.00 0.00 0.00 73 1022.2
20260902033036 70 265 0.0 1.7 0.00 0.00 0.00 73 1022.3
20260902031524 70 265 0.0 1.7 0.00 0.00 0.00 73 1022.3
20260902030027 70 265 0.0 1.7 0.00 0.00 0.00 73 1022.4
20260902024534 70 260 0.0 0.9 0.00 0.00 0.00 74 1022.3
20260902023018 70 260 0.0 1.7 0.00 0.00 0.00 73 1022.4
20260902021516 70 260 0.0 0.0 0.00 0.00 0.00 72 1022.4
20260902020019 70 260 0.0 1.7 0.00 0.00 0.00 72 1022.4
20260902014507 71 260 0.0 0.0 0.00 0.00 0.00 71 1022.3
20260902013011 71 260 0.0 1.7 0.00 0.00 0.00 71 1022.3
20260902011522 71 202 0.0 1.7 0.00 0.00 0.00 71 1022.4
20260902010031 71 199 0.0 1.7 0.00 0.00 0.00 71 1022.4
20260902004523 71 155 0.0 0.9 0.00 0.00 0.00 72 1022.5
20260902003010 71 155 0.0 1.7 0.00 0.00 0.00 72 1022.5
20260902001514 71 144 0.0 0.9 0.00 0.00 0.00 72 1022.4
20260902000036 71 142 0.0 1.7 0.00 0.00 0.00 72 1022.5
20260901234524 70 140 0.0 0.0 0.00 0.00 0.00 73 1022.5
20260901233026 71 140 0.0 0.9 0.00 0.00 0.00 72 1022.5
20260901231512 73 185 0.0 1.7 0.00 0.00 0.00 68 1022.4
20260901230028 73 309 0.0 1.7 0.00 0.00 0.00 67 1022.5
20260901224538 72 309 0.0 0.0 0.00 0.00 0.00 68 1022.4
20260901223044 72 309 0.0 1.7 0.00 0.00 0.00 67 1022.4
20260901221526 72 309 0.0 0.0 0.00 0.00 0.00 67 1022.5
20260901220019 72 309 0.0 1.7 0.00 0.00 0.00 68 1022.4
20260901214523 73 309 0.0 0.0 0.00 0.00 0.00 68 1022.4
20260901213034 72 309 0.0 1.7 0.00 0.00 0.00 68 1022.5
20260901211529 73 309 0.0 0.0 0.00 0.00 0.00 68 1022.5
20260901210039 73 309 0.0 1.7 0.00 0.00 0.00 69 1022.5
20260901204525 73 309 0.0 1.7 0.00 0.00 0.00 69 1022.5
20260901203029 73 309 0.0 1.7 0.00 0.00 0.00 68 1022.4
20260901201527 73 309 0.0 1.7 0.00 0.00 0.00 67 1022.4
20260901200042 73 309 0.0 0.0 0.00 0.00 0.00 67 1022.3
20260901194518 74 309 0.0 1.7 0.00 0.00 0.00 67 1022.2
20260901193027 74 309 0.0 1.7 0.00 0.00 0.00 66 1022.1
20260901191532 74 309 0.0 1.7 0.00 0.00 0.00 67 1021.9
20260901190034 74 309 0.0 1.7 0.00 0.00 0.00 67 1021.8
20260901184533 74 309 0.0 0.0 0.00 0.00 0.00 66 1021.6
20260901183025 75 309 0.0 1.7 0.00 0.00 0.00 66 1021.4
20260901181534 75 309 0.0 0.0 0.00 0.00 0.00 65 1021.4
20260901180034 76 309 0.0 0.0 0.00 0.00 0.00 64 1021.3
20260901174544 76 309 0.0 0.0 0.00 0.00 0.00 63 1021.2
20260901173017 77 309 0.0 1.7 0.00 0.00 0.00 61 1021.1
20260901171524 77 309 0.0 1.7 0.00 0.00 0.00 62 1021.0
20260901170010 78 308 0.9 1.7 0.00 0.00 0.00 60 1021.1
20260901164514 79 299 0.9 1.7 0.00 0.00 0.00 59 1021.1